Regional Weather Roundup
Issued by NWS

Home | Current Version | Previous Version | Text Only | Print | Product List | Glossary Off
Versions: 1 2 3 4 5 6 7 8 9 10 11 12 13 14 15 16 17 18 19 20 21 22 23 24 25 26 27 28 29 30 31 32 33 34 35 36 37 38 39 40 41 42 43 44 45 46 47 48 49 50

057
ASUS44 KLIX 281410
RWRLA
LOUISIANA WEATHER ROUNDUP
NATIONAL WEATHER SERVICE NEW ORLEANS LA
800 AM CST SAT FEB 28 2015

NOTE: "FAIR" INDICATES FEW OR NO CLOUDS BELOW 12,000 FEET WITH NO
      SIGNIFICANT WEATHER AND/OR OBSTRUCTIONS TO VISIBILITY.
      SKY/WX - SKY CONDITION AND SIGNIFICANT WEATHER.
      TMP - AIR TEMPERATURE.    DP   - DEWPOINT TEMPERATURE.
      RH  - RELATIVE HUMIDITY.  PRES - PRESSURE.
      HX  - HEAT INDEX.         WCI  - WIND CHILL INDEX.

*  THESE STATIONS ARE NOT NWS OR FAA STATIONS AND ARE NOT UNDER
   NWS QUALITY CONTROL.

LAZ040-048-061>063-065-066-069-281500-
SOUTHEAST LOUISIANA

CITY           SKY/WX    TMP DP  RH WIND       PRES   REMARKS
N.O. AUDUBON     N/A     44  32  64 MISG        N/A
N.O. INTL ARPT PTSUNNY   43  30  60 NE15      30.41S
N.O. LAKEFRONT MOSUNNY   44  30  57 NE18      30.42S
SLIDELL        SUNNY     40  26  57 NE7       30.43R
BATON ROUGE    MOSUNNY   40  26  57 E9        30.41R WCI  34
BOOTHVILLE     MOSUNNY   49  42  77 NE14G24   30.38R
BELLE CHASSE   PTSUNNY   43  30  60 NE15      30.40S
BOGALUSA*        N/A     39  26  60 NE6       30.46S WCI  34
GALLIANO*      CLOUDY    48  37  65 MISG      30.39R
NEW ROADS*     CLOUDY    41  26  53 NE8       30.41R
GONZALES*      CLOUDY    40  28  64 E7        30.40R WCI  35
HAMMOND*       MOSUNNY   41  25  52 E9        30.43F
HOUMA*         CLOUDY    45  32  61 NE14      30.39R
PORT FOURCHON* PTSUNNY   48  41  76 NE18G26   30.40R

$$

LAZ041-044-053-054-281500-
SOUTHWEST LOUISIANA

CITY           SKY/WX    TMP DP  RH WIND       PRES   REMARKS
LAKE CHARLES   CLOUDY    40  29  64 E13       30.35S WCI  32
LAFAYETTE      CLOUDY    39  28  64 NE6       30.38R WCI  35
PATTERSON      CLOUDY    43  32  65 NE13      30.38R
SALT POINT       N/A     43  34  70 E8G17     30.34S
NEW IBERIA     CLOUDY    40  28  62 E14       30.37S WCI  32
CHENAULT AIRPK CLOUDY    39  28  65 NE10G17   30.36S WCI  32

$$

LAZ027-028-281500-
CENTRAL LOUISIANA

CITY           SKY/WX    TMP DP  RH WIND       PRES   REMARKS
FORT POLK      CLOUDY    37  26  65 NE6       30.38R WCI  32
ALEXANDRIA INT CLOUDY    35  27  72 NE8       30.40F WCI  29
ALEXANDRIA     CLOUDY    37  27  67 VRB3      30.42S

$$

LAZ001-002-281500-
NORTHWEST LOUISIANA

CITY           SKY/WX    TMP DP  RH WIND       PRES   REMARKS
SHREVEPORT     PTSUNNY   32  22  66 E9        30.43R WCI  24
BARKSDALE AFB  CLOUDY    31  22  69 E6        30.44R WCI  25
DTN SHREVEPORT CLOUDY    31  20  63 NE8       30.44R WCI  23

$$

LAZ014-016-281500-
NORTHEAST LOUISIANA

CITY           SKY/WX    TMP DP  RH WIND       PRES   REMARKS
MONROE         SUNNY     32  26  78 NE9       30.49S WCI  24
TALLULAH       PTSUNNY   36  29  75 N7        30.48R WCI  30

$$




USA.gov is the U.S. government's official web portal to all federal, state and local government web resources and services.